Regional Weather Roundup
Issued by NWS

Home | Current Version | Previous Version | Graphics & Text | Print | Product List | Glossary On
Versions: 1 2 3 4 5 6 7 8 9 10 11 12 13 14 15 16 17 18 19 20 21 22 23 24 25 26 27 28 29 30 31 32 33 34 35 36 37 38 39 40 41 42 43 44 45 46 47 48 49 50
000
ASUS43 KLMK 251610
RWRKY
KENTUCKY REGIONAL WEATHER ROUNDUP
NATIONAL WEATHER SERVICE LOUISVILLE KY
1200 PM EDT TUE APR 25 2017

NOTE "FAIR" INDICATES FEW OR NO CLOUDS BELOW 12,000 FEET
WITH NO SIGNIFICANT WEATHER AND/OR OBSTRUCTIONS TO VISIBILITY.

KYZ001>023-026-027-061>063-070>075-251700-
WESTERN AND SOUTH CENTRAL KENTUCKY

CITY           SKY/WX    TMP DP  RH WIND       PRES   REMARKS
PADUCAH        SUNNY     71  55  56 S6        29.73F
HENDERSON      MOSUNNY   72  56  57 SW6       29.76F
OWENSBORO      SUNNY     71  59  65 SW3       29.77S
HOPKINSVILLE   SUNNY     69  55  60 SE7       29.77F
BOWLING GREEN  SUNNY     70  57  63 CALM      29.79S
GLASGOW        SUNNY     69  56  62 N3        29.79S
$$

KYZ024-025-028>034-038-045-046-053-251700-
NORTH CENTRAL KENTUCKY

CITY           SKY/WX    TMP DP  RH WIND       PRES   REMARKS
LOUISVILLE/SDF MOSUNNY   69  56  62 E5        29.78F
LOUISVILLE/LOU   N/A     68  58  70 CALM      29.78
FORT KNOX      SUNNY     67  56  67 CALM      29.77F
$$

KYZ035>037-039>044-047>052-055>060-089>105-251700-
NORTHEAST KENTUCKY

CITY           SKY/WX    TMP DP  RH WIND       PRES   REMARKS
LEXINGTON      MOSUNNY   63  52  67 S3        29.80F
COVINGTON      PTSUNNY   67  55  65 SE7       29.79F
FRANKFORT      MOSUNNY   67  52  58 NE6       29.79F
$$

KYZ054-064>069-076>088-106>120-251700-
SOUTHEAST KENTUCKY

CITY           SKY/WX    TMP DP  RH WIND       PRES   REMARKS
JACKSON        CLOUDY    65  55  70 VRB3      29.80S
LONDON         PTSUNNY   64  52  64 NW5       29.81F
SOMERSET       PTSUNNY   64  52  63 SW3       29.81S
MIDDLESBORO    CLOUDY    63  55  75 CALM      29.81F
MONTICELLO     CLOUDY    67  55  65 N13G20    29.82F
$$





USA.gov is the U.S. government's official web portal to all federal, state and local government web resources and services.